#timestamp,LO_Frequency,Hit,Temp,Hum 
1478397615.4,286046962.2,N,0.0,0.0
1478397635.2,286046960.8,N,0.0,0.0
1478397655.0,286046961.1,N,0.0,0.0
1478397655.9,286046961.1,N,0.0,0.0
1478397675.8,286046960.4,N,0.0,0.0
1478397695.6,286046962.2,N,0.0,0.0
1478397715.4,286046964.4,N,0.0,0.0
1478397735.3,286046962.0,N,0.0,0.0
1478397755.1,286046962.7,N,0.0,0.0
1478397775.8,286046962.2,N,0.0,0.0
1478397795.7,286046962.4,N,0.0,0.0
1478397815.5,286046957.0,N,0.0,0.0
1478397835.3,286046959.0,N,0.0,0.0
1478397855.2,286046958.9,N,0.0,0.0
1478397875.9,286046962.7,N,0.0,0.0
1478397895.7,286046961.5,N,0.0,0.0
1478397915.6,286046961.4,N,0.0,0.0
1478397935.4,286046964.0,N,0.0,0.0
1478397955.2,286046963.5,N,0.0,0.0
1478397975.0,286046961.3,N,0.0,0.0
1478397976.0,286046961.3,N,0.0,0.0
1478397995.8,286046963.2,N,0.0,0.0
1478398015.6,286046966.0,N,0.0,0.0
1478398035.4,286046962.9,N,0.0,0.0
1478398055.3,286046961.7,N,0.0,0.0
1478398075.1,286046961.3,N,0.0,0.0
1478398095.8,286046961.8,N,0.0,0.0
1478398115.7,286046961.7,N,0.0,0.0
1478398135.5,286046963.1,N,0.0,0.0
1478398155.3,286046962.9,N,0.0,0.0
1478398175.2,286046963.3,N,0.0,0.0
1478398195.9,286046961.9,N,0.0,0.0
1478398215.7,286046963.6,N,0.0,0.0
1478398235.6,286046965.4,N,0.0,0.0
1478398255.4,286046967.1,N,0.0,0.0
1478398275.2,286046967.4,N,0.0,0.0
1478398295.1,286046966.1,N,0.0,0.0
1478398296.0,286046966.1,N,0.0,0.0
1478398315.8,286046969.1,N,0.0,0.0
1478398335.6,286046964.6,N,0.0,0.0
1478398355.5,286046968.4,N,0.0,0.0
1478398375.3,286046966.1,N,0.0,0.0
1478398395.1,286046966.2,N,0.0,0.0
1478398415.9,286046966.1,N,0.0,0.0
1478398435.7,286046969.0,N,0.0,0.0
1478398455.5,286046969.0,N,0.0,0.0
1478398475.3,286046967.6,N,0.0,0.0
1478398495.2,286046964.2,N,0.0,0.0
1478398515.0,286046964.3,N,0.0,0.0
1478398515.9,286046964.3,N,0.0,0.0
1478398535.7,286046965.8,N,0.0,0.0
1478398555.6,286046963.7,N,0.0,0.0
1478398575.4,286046964.9,N,0.0,0.0
1478398595.2,286046967.2,N,0.0,0.0
1478398615.1,286046966.1,N,0.0,0.0
1478398616.0,286046966.1,N,0.0,0.0
1478398635.8,286046965.7,N,0.0,0.0
1478398655.6,286046963.8,N,0.0,0.0
1478398675.5,286046961.3,N,0.0,0.0
1478398695.3,286046965.8,N,0.0,0.0
1478398715.1,286046964.7,N,0.0,0.0
1478398735.9,286046966.8,N,0.0,0.0
1478398755.7,286046968.5,N,0.0,0.0
1478398775.5,286046968.6,N,0.0,0.0
1478398795.4,286046967.1,N,0.0,0.0
1478398815.2,286046966.1,N,0.0,0.0
1478398835.0,286046968.3,N,0.0,0.0
1478398835.9,286046968.3,N,0.0,0.0
1478398855.8,286046966.1,N,0.0,0.0
1478398875.6,286046966.4,N,0.0,0.0
1478398895.4,286046963.9,N,0.0,0.0
1478398915.2,286046964.1,N,0.0,0.0
1478398935.1,286046963.8,N,0.0,0.0
1478398936.0,286046963.8,N,0.0,0.0
1478398955.8,286046964.1,N,0.0,0.0
1478398975.6,286046964.8,N,0.0,0.0
1478398995.5,286046963.1,N,0.0,0.0
1478399015.3,286046962.9,N,0.0,0.0
1478399035.1,286046967.5,N,0.0,0.0
1478399055.9,286046966.6,N,0.0,0.0
1478399075.7,286046966.5,N,0.0,0.0
1478399095.5,286046970.3,N,0.0,0.0
1478399115.4,286046966.3,N,0.0,0.0
1478399135.2,286046968.7,N,0.0,0.0
1478399155.0,286046969.2,N,0.0,0.0
1478399155.9,286046969.2,N,0.0,0.0
1478399175.8,286046965.5,N,0.0,0.0
1478399195.6,286046965.7,N,0.0,0.0
1478399215.4,286046966.9,N,0.0,0.0
1478399235.3,286046970.7,N,0.0,0.0
1478399255.1,286046969.0,N,0.0,0.0
1478399256.0,286046969.0,N,0.0,0.0
1478399275.8,286046967.7,N,0.0,0.0
1478399295.7,286046965.8,N,0.0,0.0
1478399315.5,286046962.3,N,0.0,0.0
1478399335.3,286046963.0,N,0.0,0.0
1478399355.2,286046965.1,N,0.0,0.0
1478399375.9,286046965.3,N,0.0,0.0
1478399395.7,286046966.4,N,0.0,0.0
1478399415.5,286046965.8,N,0.0,0.0
1478399435.4,286046965.4,N,0.0,0.0
1478399455.2,286046964.2,N,0.0,0.0
1478399475.0,286046964.0,N,0.0,0.0
1478399475.9,286046964.0,N,0.0,0.0
1478399495.8,286046967.3,N,0.0,0.0
1478399515.6,286046965.7,N,0.0,0.0
1478399535.4,286046966.8,N,0.0,0.0
1478399555.3,286046967.5,N,0.0,0.0
1478399575.1,286046965.0,N,0.0,0.0
1478399595.8,286046966.0,N,0.0,0.0
1478399615.7,286046964.9,N,0.0,0.0
1478399635.5,286046968.8,N,0.0,0.0
1478399655.3,286046968.2,N,0.0,0.0
1478399675.2,286046969.9,N,0.0,0.0
1478399695.9,286046968.6,N,0.0,0.0
1478399715.7,286046968.1,N,0.0,0.0
1478399735.6,286046971.3,N,0.0,0.0
1478399755.4,286046968.2,N,0.0,0.0
1478399775.2,286046970.2,N,0.0,0.0
1478399795.1,286046969.9,N,0.0,0.0
1478399796.0,286046969.9,N,0.0,0.0
1478399815.8,286046969.4,N,0.0,0.0
1478399835.6,286046968.8,N,0.0,0.0
1478399855.4,286046966.1,N,0.0,0.0
1478399875.3,286046968.9,N,0.0,0.0
1478399895.1,286046966.7,N,0.0,0.0
1478399915.8,286046969.2,N,0.0,0.0
1478399935.7,286046968.7,N,0.0,0.0
1478399955.5,286046968.3,N,0.0,0.0
1478399975.3,286046970.4,N,0.0,0.0
1478399995.2,286046970.1,N,0.0,0.0
1478400015.9,286046970.1,N,0.0,0.0
1478400035.7,286046971.8,N,0.0,0.0
1478400055.6,286046970.3,N,0.0,0.0
1478400075.4,286046971.7,N,0.0,0.0
1478400095.2,286046967.3,N,0.0,0.0
1478400115.1,286046969.0,N,0.0,0.0
1478400116.0,286046969.0,N,0.0,0.0
1478400135.8,286046967.2,N,0.0,0.0
1478400155.6,286046971.7,N,0.0,0.0
1478400175.5,286046972.1,N,0.0,0.0
1478400195.3,286046972.1,N,0.0,0.0
1478400215.1,286046971.4,N,0.0,0.0
1478400235.9,286046973.6,N,0.0,0.0
1478400255.7,286046971.0,N,0.0,0.0
1478400275.5,286046973.6,N,0.0,0.0
1478400295.3,286046973.0,N,0.0,0.0
1478400315.2,286046975.2,N,0.0,0.0
1478400335.0,286046971.1,N,0.0,0.0
1478400335.9,286046971.1,N,0.0,0.0
1478400355.7,286046969.7,N,0.0,0.0
1478400375.6,286046971.1,N,0.0,0.0
1478400395.4,286046978.0,N,0.0,0.0
1478400415.2,286046978.5,N,0.0,0.0
1478400435.1,286046971.1,N,0.0,0.0
1478400436.0,286046971.1,N,0.0,0.0
1478400455.8,286046968.5,N,0.0,0.0
1478400475.6,286046970.2,N,0.0,0.0
1478400495.5,286046971.3,N,0.0,0.0
1478400515.3,286046972.0,N,0.0,0.0
1478400535.1,286046975.7,N,0.0,0.0
1478400555.9,286046975.1,N,0.0,0.0
1478400575.7,286046973.9,N,0.0,0.0
1478400595.5,286046973.1,N,0.0,0.0
1478400615.4,286046974.4,N,0.0,0.0
1478400635.2,286046974.2,N,0.0,0.0
1478400655.0,286046972.7,N,0.0,0.0
1478400655.9,286046972.7,N,0.0,0.0
1478400675.8,286046979.2,N,0.0,0.0
1478400695.6,286046977.1,N,0.0,0.0
1478400715.4,286046971.9,N,0.0,0.0
1478400735.2,286046973.7,N,0.0,0.0
1478400755.1,286046972.6,N,0.0,0.0
1478400756.0,286046972.6,N,0.0,0.0
1478400775.8,286046974.6,N,0.0,0.0
1478400795.6,286046974.4,N,0.0,0.0
1478400815.5,286046974.3,N,0.0,0.0
1478400835.3,286046975.3,N,0.0,0.0
1478400855.1,286046974.8,N,0.0,0.0
1478400875.9,286046975.9,N,0.0,0.0
1478400895.7,286046976.6,N,0.0,0.0
1478400915.5,286046972.9,N,0.0,0.0
1478400935.4,286046975.2,N,0.0,0.0
1478400955.2,286046972.5,N,0.0,0.0
1478400975.0,286046973.5,N,0.0,0.0
1478400975.9,286046973.5,N,0.0,0.0
1478400995.8,286046974.0,N,0.0,0.0
1478401015.6,286046973.4,N,0.0,0.0
1478401035.4,286046974.1,N,0.0,0.0
1478401055.3,286046973.0,N,0.0,0.0
1478401075.1,286046975.1,N,0.0,0.0
1478401076.0,286046975.1,N,0.0,0.0
1478401095.8,286046971.1,N,0.0,0.0
1478401115.7,286046972.2,N,0.0,0.0
1478401135.5,286046971.2,N,0.0,0.0
1478401155.3,286046974.4,N,0.0,0.0
1478401175.2,286046976.7,N,0.0,0.0
1478401195.9,286046975.1,N,0.0,0.0
